Regional Weather Roundup
Issued by NWS

Home | Current Version | Previous Version | Graphics & Text | Print | Product List | Glossary On
Versions: 1 2 3 4 5 6 7 8 9 10 11 12 13 14 15 16 17 18 19 20 21 22 23 24 25 26 27 28 29 30 31 32 33 34 35 36 37 38 39 40 41 42 43 44 45 46 47 48
000
ASUS43 KDMX 131307
RWRIA

WEATHER ROUNDUP FOR IOWA
NATIONAL WEATHER SERVICE DES MOINES IA
800 AM CDT SUN JUL 13 2014

NOTE: "FAIR" INDICATES FEW OR NO CLOUDS BELOW 12,000 FEET WITH NO
SIGNIFICANT WEATHER AND/OR OBSTRUCTIONS TO VISIBILITY.

* - THESE STATIONS ARE NOT NWS STATIONS...THUS NOT UNDER NWS
QUALITY CONTROL.  THEY ALSO DO NOT REPORT WEATHER SUCH
AS PRECIPITATION OR FOG.

IAZ001>003-012>014-020>022-031>034-043>046-131400-
   NORTHWEST IOWA

CITY           SKY/WX    TMP DP  RH WIND       PRES   REMARKS
CARROLL *      MOSUNNY   68  66  94 SW6       30.04S
CHEROKEE *     CLOUDY    66  66 100 CALM      30.04S
DENISON *      FOG       64  64 100 W5        30.04R VSB 0
LE MARS *      SUNNY     68  68 100 SW5       30.05F FOG
ORANGE CITY *  SUNNY     70  64  83 W6        30.05S
SHELDON *      SUNNY     68  66  94 W5        30.04R
SIOUX CITY     SUNNY     70  67  90 NW5       30.06R
SPENCER        SUNNY     68  65  90 W6        30.04R
STORM LAKE *   MOSUNNY   66  66 100 W9        30.05S
$$

IAZ055>058-069>071-079>083-090>094-131400-
   SOUTHWEST IOWA

CITY           SKY/WX    TMP DP  RH WIND       PRES   REMARKS
ATLANTIC *     SUNNY     70  68  94 W5        30.05S
AUDUBON *      MOSUNNY   70  66  88 SW3       30.06S FOG
CLARINDA *     SUNNY     70  70 100 N6        30.06S
COUNCIL BLFS * SUNNY     70  70 100 NW6       30.06R
CRESTON *      SUNNY     70  68  94 NW6       30.05S
HARLAN  *      SUNNY     66  66 100 CALM      30.09R
LAMONI         CLOUDY    69  68  96 N8        30.04R
RED OAK *      SUNNY     72  68  88 VRB3      30.06R
SHENANDOAH *   SUNNY     72  68  88 CALM      30.06R
$$

IAZ047>049-059>061-072>074-084-131400-
   CENTRAL IOWA

CITY           SKY/WX    TMP DP  RH WIND       PRES   REMARKS
AMES           FOG       67  67 100 W8        30.02S VSB 1/2
ANKENY *       CLOUDY    68  68 100 NW6       30.02S
CHARITON *     SUNNY     68  68 100 NW5       30.03S
DES MOINES     MOSUNNY   71  67  87 NW7       30.02R
GRINNELL*      FOG       68  66  94 W6        30.03R VSB 1/4
KNOXVILLE *    CLOUDY    68  68 100 NW6       30.01S
MARSHALLTOWN   FOG       66  65  96 W7        30.01R VSB 1/4
PELLA *        PTSUNNY   70  70 100 NW5       30.03S FOG
PERRY *          N/A     68  66  94 W6        30.04R
$$

IAZ004>006-015-016-023>025-035-036-131400-
   NORTH CENTRAL IOWA

CITY           SKY/WX    TMP DP  RH WIND       PRES   REMARKS
ALGONA *       SUNNY     70  66  88 W9        30.02S
CLARION *      SUNNY     66  66 100 W7        30.01S
ESTHERVILLE    MOSUNNY   68  65  90 NW9       30.02S
FORT DODGE *   SUNNY     68  66  94 W5        30.03R
MASON CITY     MOSUNNY   69  67  93 W9        30.01R
FOREST CITY *  PTSUNNY   70  68  94 W7        30.01R
IOWA FALLS *     N/A     68  66  94 SW7       30.02S
$$

IAZ007>011-017>019-026>030-037>042-050>054-066-131400-
   NORTHEAST IOWA

CITY           SKY/WX    TMP DP  RH WIND       PRES   REMARKS
CEDAR RAPIDS   CLOUDY    67  65  93 W8        30.00R FOG
CHARLES CITY * SUNNY     68  66  94 W7        29.99S
CLINTON *      CLOUDY    66  64  94 W6        30.01R
DECORAH *        N/A    N/A N/A N/A MISG        N/A
DUBUQUE        PTSUNNY   66  65  96 W7        29.98S
MONTICELLO *   CLOUDY    68  66  94 W6        29.99R
OELWEIN *      FOG       66  66 100 SW8       30.00S VSB 1/2
WATERLOO       PTSUNNY   65  64  97 SW7       29.99R FOG
$$

IAZ064-065-067-068-078-131400-
   EAST CENTRAL IOWA

CITY           SKY/WX    TMP DP  RH WIND       PRES   REMARKS
DAVENPORT        N/A     67  65  93 NW7       30.00R FOG
IOWA CITY      CLOUDY    69  67  93 W7        30.01R
MT. PLEASANT * CLOUDY    68  66  94 NW5       30.01R FOG
MUSCATINE *    CLOUDY    68  66  94 W7        30.00R
QUAD CITIES    CLOUDY    68  65  90 W7        29.99R
$$

IAZ062-063-075>077-085>089-095>099-131400-
   SOUTHEAST IOWA

CITY           SKY/WX    TMP DP  RH WIND       PRES   REMARKS
BURLINGTON     CLOUDY    69  67  93 NW7       30.01R
FAIRFIELD *    CLOUDY    68  66  94 NW8       30.02S
FORT MADISON * CLOUDY    70  70 100 NW5       30.02R
KEOKUK *       MOSUNNY   70  70 100 NW6       30.00R
OSKALOOSA *    FOG       68  66  94 W6        30.02S VSB 1/4
CENTERVILLE *  CLOUDY    68  68 100 NW5       30.05R
OTTUMWA        CLOUDY    68  67  96 NW7       30.02R
WASHINGTON *   CLOUDY    68  66  94 W6        30.01R
$$

ABBREVIATIONS USED IN REMARKS
   TC - TEMPERATURES IN CELSIUS
  WCI - WIND CHILL INDEX
   HX - HEAT INDEX
  VSB - VISIBILITY
$$



USA.gov is the U.S. government's official web portal to all federal, state and local government web resources and services.